Theta_e
313 313 314 313 314 314 313 314 314 313 313 313 313 313 313 314 314 314 314 314 314 314 314 314 314 314 314 314 314 313 314 313 313 313 313 313 313 313 313 313 312 313 312 312 312 312 311 311 311 311 311 310 310 309 309 308 307 307 307 308 309 310 311 311 310 311 312 311 311 311 311 311 310 309 308 307 306 306 306 306 305 301 296 293 291
313 313 313 313 313 313 313 313 313 313 313 313 314 313 313 314 313 313 313 313 313 313 314 314 314 314 314 313 313 313 313 313 313 313 312 312 313 313 312 312 312 312 312 312 312 311 311 311 310 310 310 310 310 309 309 308 308 307 307 307 308 309 310 311 312 312 312 312 311 311 311 310 309 308 307 306 305 304 304 304 303 300 295 291 290
312 312 312 312 312 311 311 311 311 312 312 312 313 313 313 313 313 313 313 313 313 313 313 313 313 313 313 313 314 313 313 313 313 313 313 313 313 313 312 312 312 312 311 311 311 311 311 311 310 310 310 310 309 309 308 307 307 307 306 305 306 308 310 311 311 311 311 311 311 310 310 309 308 307 306 305 303 303 303 302 302 299 294 290 289
311 311 311 311 311 310 310 310 310 310 310 310 310 310 311 312 312 312 312 312 313 312 312 312 312 313 313 313 313 313 313 313 313 313 313 313 313 313 313 312 312 312 312 311 311 310 311 311 310 310 310 309 309 309 308 307 306 306 306 304 304 306 309 309 310 310 311 311 310 310 309 308 307 306 305 304 303 302 302 301 300 297 293 289 289
311 311 311 311 311 310 310 309 309 309 308 308 308 308 309 309 309 310 311 311 311 311 312 312 312 312 312 312 312 312 312 313 313 313 313 313 313 313 313 313 313 312 312 312 311 310 310 310 310 310 309 310 309 309 308 307 306 306 305 304 304 305 307 308 308 309 310 310 310 309 308 306 305 305 304 303 301 301 300 299 297 294 291 289 289
310 310 310 310 310 309 309 308 308 307 307 307 306 307 307 307 307 308 308 309 309 310 310 310 311 311 311 311 312 312 312 312 312 313 313 312 312 312 313 312 312 312 312 311 311 310 310 310 310 310 309 309 309 309 308 307 307 306 304 304 305 307 307 307 308 309 309 309 308 307 307 305 304 303 302 301 300 300 299 296 293 292 290 289 288
308 308 308 308 308 308 307 307 306 306 305 305 305 305 305 305 305 305 306 306 306 307 308 309 310 310 311 311 311 311 311 311 312 312 312 312 312 312 312 312 312 312 312 311 311 310 310 310 310 310 309 309 309 309 308 307 307 306 304 304 305 307 308 308 309 309 308 308 307 306 305 304 302 301 300 299 298 297 297 295 292 290 288 288 287
307 307 307 307 306 306 305 305 305 304 304 304 304 304 304 304 303 303 303 304 304 304 305 306 307 308 309 310 310 311 311 311 311 311 311 312 312 312 312 311 311 311 311 311 310 310 309 309 309 309 309 309 308 308 307 306 306 305 304 304 305 306 307 308 308 308 307 306 306 305 304 303 301 299 298 297 296 295 294 293 292 291 289 287 287
305 305 305 305 304 304 304 304 303 303 303 303 303 303 303 303 303 302 302 303 303 303 303 304 305 305 306 307 308 309 310 310 310 311 311 311 311 311 311 311 311 311 311 311 310 310 309 309 309 309 309 308 308 307 306 306 305 304 304 305 306 306 307 308 307 306 305 305 304 304 303 301 300 299 297 297 296 295 293 291 291 291 290 288 287
303 303 303 303 302 302 302 302 302 302 302 302 302 302 302 302 302 301 302 302 302 302 302 303 303 304 304 305 305 306 307 308 309 309 310 310 310 310 311 311 310 310 310 310 310 309 309 309 309 309 308 307 306 305 304 304 304 303 303 305 307 307 307 307 306 305 305 304 304 303 302 301 300 299 299 297 296 294 293 291 290 290 289 288 287
302 302 302 301 301 301 301 301 301 301 301 301 301 301 301 301 301 301 301 301 301 301 301 302 302 303 303 303 304 305 305 306 306 307 308 308 309 309 310 310 310 310 309 309 309 309 309 308 308 308 307 306 305 304 303 303 303 303 303 305 306 307 307 307 306 305 304 303 302 302 302 301 301 300 297 295 294 293 293 292 291 290 289 288 287
301 301 301 301 301 301 301 301 300 300 300 300 300 300 300 300 300 300 300 300 300 300 300 301 301 301 302 302 302 303 304 305 305 306 306 307 307 307 308 308 309 309 309 309 308 308 308 308 307 306 306 305 304 303 303 303 302 302 302 304 305 306 306 306 305 304 303 302 302 302 302 301 300 298 296 294 294 293 292 292 291 290 289 289 288
301 300 301 301 300 300 300 300 300 300 300 300 300 300 300 300 300 300 300 300 300 300 300 300 300 301 301 301 302 302 303 304 304 305 305 305 305 306 306 307 307 308 308 308 307 307 307 306 306 305 304 304 303 303 303 302 301 301 301 303 304 305 305 305 304 303 303 302 302 302 302 301 299 298 297 296 295 293 292 291 291 290 289 289 289
300 300 300 300 300 300 300 300 300 300 300 300 300 300 300 300 300 300 299 300 299 300 299 300 300 300 300 300 300 301 301 302 303 304 304 304 305 305 305 305 306 306 307 307 307 306 306 305 304 303 303 303 303 302 302 302 300 300 301 302 303 304 304 305 304 303 303 302 302 301 300 300 299 298 297 296 295 294 294 292 291 290 289 290 290
300 300 300 300 300 299 299 299 299 299 299 299 299 299 299 299 299 299 299 299 299 299 299 299 299 300 300 300 300 300 300 301 302 303 304 304 304 304 304 304 305 305 305 305 305 305 305 304 303 302 302 302 302 302 302 301 299 299 300 301 302 303 304 304 304 303 303 302 302 300 299 298 298 297 297 296 295 294 294 293 292 291 290 290 291
299 299 299 299 299 298 298 298 298 298 298 298 298 298 298 298 298 298 298 298 298 298 298 299 299 299 299 299 299 299 300 300 301 302 304 304 304 304 303 304 304 304 304 304 304 304 304 303 302 302 301 301 301 301 300 300 299 299 300 301 302 303 303 304 304 303 302 300 299 298 297 296 296 296 295 295 294 293 293 292 292 291 291 291 290
298 298 298 298 297 297 297 297 297 297 297 297 297 297 297 297 296 296 296 297 297 297 297 297 297 297 298 299 300 300 300 300 301 302 303 304 304 303 303 303 303 303 303 303 303 302 302 301 301 301 300 300 300 299 299 299 299 299 300 301 302 302 303 303 302 301 300 298 296 296 295 295 294 294 294 294 293 293 292 291 291 291 291 291 291
297 297 297 297 297 297 296 296 296 296 296 296 296 296 296 296 296 296 296 296 296 296 295 296 296 296 296 297 299 300 300 300 301 302 303 303 303 303 302 302 302 302 302 302 301 300 300 300 299 299 299 299 299 298 298 299 299 300 300 300 301 301 302 302 301 299 297 295 294 294 293 293 293 293 293 293 293 293 293 292 292 292 292 292 292
297 296 296 296 296 296 296 296 296 295 295 295 295 295 295 295 295 295 295 295 295 295 295 295 295 295 295 295 297 298 300 300 300 301 302 302 302 302 301 301 301 301 301 300 299 298 298 298 298 298 298 298 298 298 298 298 299 299 299 298 299 300 300 299 299 297 296 294 293 293 293 293 293 292 292 293 293 293 293 293 293 293 292 292 291
296 296 295 295 295 295 295 295 295 295 295 294 294 294 294 294 294 294 294 294 294 294 294 295 295 294 295 294 295 296 298 300 300 300 301 301 301 300 300 300 300 299 299 298 297 297 297 297 297 298 298 298 298 298 298 298 299 298 297 297 297 298 297 296 296 295 294 293 292 292 292 292 292 292 293 293 293 293 292 292 292 292 292 291 290
294 294 294 294 294 294 293 293 293 293 293 293 293 293 293 293 293 293 293 293 293 294 294 294 295 294 294 294 294 295 297 299 300 300 301 301 300 299 299 299 298 297 297 296 296 296 296 296 297 297 297 298 298 298 298 298 297 297 296 296 296 295 295 294 294 293 293 292 292 292 292 292 293 293 293 293 292 291 291 291 291 290 290 289 288
293 293 293 292 292 292 292 292 292 292 292 292 292 292 292 292 292 292 292 292 293 293 294 295 296 295 295 295 295 295 296 298 299 300 300 300 299 298 298 297 297 296 296 296 295 295 295 296 296 296 296 297 297 297 296 296 295 295 295 294 293 293 292 293 292 292 292 292 292 292 292 292 293 293 293 293 292 291 290 290 290 289 287 286 285
292 292 292 292 292 292 292 291 291 292 292 292 292 292 292 292 292 292 292 291 292 293 295 297 298 297 297 296 296 296 296 297 299 300 299 299 298 297 296 296 296 295 295 295 295 295 295 295 295 295 295 295 295 295 295 294 293 293 293 292 291 291 291 291 291 291 291 291 292 292 292 292 293 293 293 292 292 291 290 290 289 287 286 285 283
292 292 291 292 291 291 291 291 291 291 291 291 291 291 291 292 292 292 292 291 292 293 295 298 299 299 298 298 297 297 298 298 299 299 299 298 297 296 295 295 295 295 295 295 295 295 295 295 295 295 294 294 294 294 293 292 291 291 291 290 290 290 290 290 291 290 291 291 291 292 292 292 293 293 292 291 291 290 289 288 287 286 284 283 282
291 291 291 291 291 291 291 291 291 291 291 291 291 291 291 291 291 292 292 291 292 293 295 297 299 299 299 299 299 298 298 298 299 299 299 297 296 295 295 294 294 294 294 294 294 294 294 294 294 294 293 293 292 292 292 291 290 290 290 289 289 290 290 290 290 291 291 291 292 292 292 292 292 292 291 290 289 289 288 287 286 284 283 282 282
290 290 290 290 290 290 290 290 290 290 290 290 290 290 290 290 291 292 292 291 292 293 295 297 298 299 299 299 299 298 298 298 299 299 298 296 295 295 294 294 294 294 294 294 294 294 294 293 292 292 292 292 292 292 291 290 289 289 289 289 289 289 290 290 290 291 291 292 292 292 292 291 291 290 290 289 288 287 286 285 284 283 282 282 281
290 290 290 290 290 290 290 290 290 290 290 290 290 289 290 290 290 291 291 292 293 294 296 297 298 299 299 298 298 298 298 298 298 298 297 296 295 294 294 294 294 294 294 294 293 293 292 291 291 291 291 290 290 290 290 289 289 289 288 288 289 289 290 290 290 291 292 292 292 291 291 290 290 289 289 288 287 286 285 284 283 282 282 281 281
290 290 290 290 290 290 290 290 290 290 290 290 290 290 290 290 290 290 291 292 293 294 296 297 298 298 297 297 297 298 298 298 297 297 296 295 294 293 293 293 293 293 292 292 291 291 290 290 290 290 289 289 289 289 288 289 289 288 288 288 288 289 289 290 291 291 292 291 290 290 290 289 289 289 288 287 286 285 284 283 282 282 281 281 280
290 290 290 290 290 290 291 291 290 290 290 290 290 290 290 290 290 290 291 291 292 293 295 296 296 296 296 296 296 296 297 297 296 295 294 294 293 292 292 292 291 291 291 290 289 289 289 289 289 289 288 288 288 287 288 288 288 288 288 288 288 289 289 290 291 291 291 290 289 289 289 289 289 288 287 286 285 284 283 282 281 281 281 280 280
289 289 290 290 290 290 290 290 290 290 291 291 291 290 290 290 290 290 291 291 291 292 293 295 295 295 295 295 295 295 295 296 296 294 293 293 292 292 291 291 290 290 289 288 287 288 288 288 288 288 288 288 287 287 287 288 288 288 288 288 288 289 290 290 291 290 289 289 289 289 289 289 289 288 287 286 284 283 282 281 281 280 280 280 280
289 289 289 289 289 289 289 290 290 290 290 290 291 291 291 290 290 290 291 291 291 292 292 293 294 294 294 294 295 294 294 295 294 293 293 292 291 291 290 290 289 289 288 287 287 287 287 287 287 287 287 287 287 287 288 288 288 287 288 288 288 289 290 290 290 289 289 289 288 288 288 288 288 287 286 285 283 282 281 281 280 280 280 280 280
289 289 289 289 289 289 289 289 289 289 290 290 290 290 291 291 291 291 291 291 291 291 292 292 293 293 293 294 294 294 294 293 292 292 292 291 290 290 289 289 288 287 286 286 286 287 287 287 286 286 286 286 287 287 288 288 287 287 287 288 288 289 290 289 289 289 289 288 288 288 288 288 287 286 285 284 282 281 281 280 280 280 280 280 280
288 288 288 288 288 288 288 288 289 289 289 290 290 290 290 290 290 291 291 291 291 291 291 292 292 293 293 293 293 293 293 292 291 290 291 290 289 288 288 287 287 286 286 286 286 286 286 286 286 286 286 287 287 287 287 287 287 287 287 288 289 289 289 289 288 288 288 288 288 287 287 287 287 285 284 282 281 280 280 280 280 280 280 280 279
288 288 288 288 288 288 288 288 288 289 289 289 290 290 290 290 289 289 290 291 291 291 291 291 292 292 292 292 292 292 291 291 290 289 289 289 288 287 286 286 286 285 285 285 285 286 286 286 286 286 286 287 287 287 287 287 287 287 288 289 289 289 289 288 288 288 288 288 288 287 287 287 286 284 282 281 281 280 280 280 280 280 279 279 279
287 287 287 287 287 287 287 287 288 288 289 289 289 289 289 289 288 287 286 287 288 289 290 291 292 292 292 291 291 291 290 290 289 289 288 287 287 286 285 285 285 285 285 285 285 285 285 285 285 286 287 287 287 287 287 287 287 288 289 289 289 289 289 289 288 288 288 288 287 287 287 286 286 284 282 281 280 280 280 279 279 279 279 279 279
287 287 287 286 286 286 287 287 287 287 287 288 288 288 288 288 286 286 285 286 287 288 289 290 292 292 292 291 290 289 289 288 288 288 287 286 286 286 285 285 285 285 285 285 285 285 285 285 285 286 286 287 287 287 287 287 288 288 289 289 289 289 289 288 288 288 288 287 287 287 286 286 285 284 282 281 280 279 279 279 278 278 278 278 278
286 286 286 286 286 285 286 286 286 286 286 286 286 286 287 286 285 285 285 286 287 287 288 290 291 291 291 290 289 288 287 287 287 287 286 286 286 285 285 285 285 285 285 285 285 285 285 285 285 286 286 287 287 287 287 288 288 289 289 289 288 288 288 288 288 288 287 287 287 286 286 286 285 283 282 280 280 279 278 278 278 278 278 278 278
285 285 285 285 285 284 284 285 285 285 285 285 284 284 284 284 284 284 285 286 287 287 288 289 289 289 289 289 288 287 286 286 286 286 286 286 285 285 285 285 285 285 285 286 286 285 285 285 285 286 286 286 287 287 287 288 288 288 288 288 288 287 288 288 288 287 287 287 287 286 286 285 284 282 281 279 279 278 278 278 278 278 278 277 277
285 284 284 283 283 283 283 283 284 284 284 283 283 283 282 283 283 284 285 286 286 287 287 287 288 288 288 287 286 286 285 285 286 286 286 285 285 285 285 285 285 285 285 285 285 285 285 285 285 285 286 286 286 287 287 287 288 288 288 287 287 287 287 287 287 287 287 287 286 286 285 284 283 281 280 279 278 278 278 277 277 277 277 276 276
283 283 283 282 282 282 282 282 282 283 283 283 283 282 282 282 283 283 284 285 286 286 286 286 286 286 286 286 285 285 285 285 285 286 286 285 285 285 285 285 285 285 285 285 285 285 285 285 285 285 285 285 286 286 286 287 287 287 287 287 287 287 287 287 287 287 287 286 286 285 284 283 281 280 279 278 278 278 277 277 277 276 276 276 275
282 282 281 281 281 280 281 281 281 282 282 282 282 281 281 282 282 282 283 284 285 285 285 284 285 285 285 285 285 284 284 285 285 285 285 285 284 285 285 284 284 285 285 285 285 285 285 285 285 285 285 285 285 285 286 286 286 286 286 286 287 287 287 287 287 286 286 285 284 284 282 281 280 279 278 278 277 277 277 276 276 276 275 275 275
280 280 280 279 279 279 279 279 280 280 281 281 281 281 281 281 281 281 282 283 284 284 284 284 284 284 284 284 284 284 284 284 285 285 285 285 284 285 285 285 285 285 285 285 285 285 285 285 285 285 285 285 285 286 286 286 286 286 286 286 286 286 286 286 286 285 285 284 283 282 281 280 279 278 278 277 277 276 276 276 275 275 275 275 275
278 278 278 278 278 277 278 278 278 279 279 280 280 279 279 279 280 280 281 282 283 283 283 283 283 283 284 284 283 283 284 284 285 285 285 285 284 285 285 285 285 285 284 284 284 285 285 285 285 286 286 286 286 286 286 286 286 286 286 286 286 286 285 285 284 284 284 283 282 281 280 278 278 277 277 276 276 276 275 275 275 275 275 274 274
277 277 277 277 277 277 277 277 277 277 278 278 278 278 278 278 279 279 280 281 282 282 282 282 282 283 283 283 283 283 284 284 285 285 285 285 284 284 285 285 285 285 284 284 284 284 284 284 285 285 285 285 285 285 286 286 286 286 286 285 285 284 284 284 283 283 282 281 280 279 278 277 277 276 276 276 275 275 275 275 275 274 274 274 274
276 276 276 276 276 276 276 276 276 276 277 277 277 277 277 277 277 278 278 279 280 280 281 281 282 282 282 282 282 282 283 284 284 285 285 285 285 284 284 284 284 284 284 284 284 284 284 284 284 284 285 285 285 285 285 285 285 284 284 284 284 283 283 282 281 280 279 279 278 277 277 276 276 276 275 275 275 275 275 274 274 274 274 274 273
275 275 275 275 275 275 275 275 275 275 275 275 275 276 276 277 277 277 277 278 279 279 280 281 281 281 281 281 282 282 283 283 284 284 284 285 285 284 284 284 284 284 284 284 284 284 284 285 285 285 285 285 285 284 284 284 284 283 283 283 282 282 281 280 279 278 278 277 277 276 276 276 275 275 275 275 275 275 274 274 274 274 273 273 273
274 274 274 274 274 274 274 274 274 274 274 274 274 275 275 276 276 276 277 278 278 279 280 280 280 281 281 281 281 282 282 283 283 284 284 284 284 284 284 284 283 283 283 283 284 284 285 285 285 284 284 284 284 283 283 283 282 282 281 281 280 280 279 278 277 277 277 276 276 276 276 275 275 275 275 275 274 274 274 274 274 273 273 273 272
273 273 273 273 273 273 273 273 273 273 273 273 273 274 275 275 276 276 277 277 278 279 279 279 279 280 280 281 281 281 282 282 283 283 283 283 283 283 283 283 283 283 283 283 283 284 284 284 284 283 283 283 283 282 282 282 281 280 280 279 278 278 277 277 277 276 276 276 276 275 275 275 275 275 275 274 274 274 274 274 273 273 272 272 272
273 273 272 272 272 272 272 272 272 272 272 272 273 274 274 275 276 276 277 277 278 278 278 278 279 279 280 280 280 281 281 282 282 282 282 282 282 282 282 282 282 282 282 283 283 283 283 283 283 283 282 282 282 282 281 281 280 279 279 278 277 277 277 276 276 276 276 275 275 275 275 275 275 275 275 274 274 274 273 273 273 272 272 271 271
272 272 272 271 271 271 271 271 271 271 272 272 273 273 274 275 275 276 276 277 277 277 277 278 278 279 279 280 280 280 281 281 281 281 281 281 281 281 281 281 281 282 282 282 282 282 282 282 282 282 282 282 281 281 280 280 279 278 277 277 277 276 276 276 276 275 275 275 275 275 275 275 275 275 274 274 273 273 272 272 272 271 271 271 270
271 271 271 271 271 271 271 271 271 271 271 272 272 273 273 274 274 274 275 275 275 276 276 277 277 278 279 279 279 279 280 280 280 280 280 280 279 279 279 280 281 282 282 282 282 281 281 281 281 281 281 281 280 280 279 278 278 277 276 276 276 276 276 275 275 275 275 275 275 275 275 275 274 274 273 273 272 272 271 271 271 270 270 270 270
Wind_Speed
9 10 10 11 11 12 12 13 14 15 15 16 16 17 18 18 19 19 20 20 21 22 22 22 23 23 24 25 26 27 27 28 28 29 31 32 33 34 34 35 37 38 38 39 39 39 41 42 43 43 41 42 42 40 39 37 35 36 37 40 43 45 47 49 53 56 56 51 50 50 48 47 46 43 41 38 34 31 30 29 28 28 32 38 42
8 9 10 11 11 12 13 13 14 14 15 16 16 17 18 19 20 21 21 21 22 22 23 23 24 25 25 26 27 27 28 29 29 31 32 34 35 36 36 37 39 40 40 41 41 40 41 41 43 42 41 42 42 39 38 37 36 38 38 39 42 43 44 46 49 52 54 51 50 50 48 46 45 42 40 37 34 31 29 29 28 27 31 37 41
8 9 10 11 12 13 14 15 16 16 17 17 18 19 20 20 21 22 22 23 23 24 24 25 25 26 26 27 27 28 29 30 31 32 34 35 36 37 38 39 41 42 43 43 43 42 42 42 43 41 40 41 42 39 38 37 37 40 42 41 42 42 42 43 46 48 50 50 49 49 48 45 44 41 38 35 32 31 29 28 28 28 32 38 41
9 10 11 12 14 16 17 18 19 19 20 20 21 22 22 23 24 24 25 25 25 25 26 26 27 28 28 28 29 29 29 30 31 32 33 34 36 37 39 40 42 43 44 45 44 43 43 44 43 42 41 41 42 40 38 37 37 40 44 43 41 41 40 41 43 45 46 47 47 48 47 45 42 40 36 33 31 30 30 29 28 29 33 37 39
10 11 12 13 15 17 18 19 20 20 21 21 22 22 23 24 24 25 26 27 27 27 28 28 29 29 30 30 31 31 31 31 31 32 32 33 35 36 38 39 41 42 43 44 44 44 43 44 43 41 41 42 43 42 40 39 38 40 41 39 35 36 38 40 41 42 44 46 47 48 47 44 41 38 36 33 31 30 30 29 27 29 33 37 37
11 12 13 14 16 17 19 19 20 21 21 22 23 23 23 24 24 25 26 26 27 27 28 29 29 30 30 30 31 32 32 33 33 34 34 34 35 36 37 39 40 41 42 43 44 44 43 43 42 41 42 44 44 42 40 39 40 40 39 35 32 34 36 38 39 41 43 44 45 46 46 44 41 38 35 33 31 30 30 29 28 29 33 37 37
12 13 14 15 16 17 19 20 20 21 22 23 24 24 25 26 26 27 27 28 28 28 28 29 29 30 30 31 31 32 33 34 35 35 36 36 36 37 38 39 41 41 42 43 43 43 42 42 41 41 42 43 43 42 40 39 39 40 37 34 34 34 36 38 39 40 42 42 42 44 44 42 39 37 34 31 29 29 30 30 31 31 33 36 37
13 14 15 16 17 18 19 20 21 22 23 24 25 26 27 28 29 29 30 30 31 31 31 31 31 30 31 31 32 32 33 34 34 35 36 36 37 38 38 39 41 42 43 43 43 42 42 41 41 41 41 42 42 41 39 38 39 39 35 32 33 35 37 40 40 39 40 40 41 42 41 40 39 35 32 31 31 31 30 29 30 32 34 36 36
15 16 17 18 19 20 21 22 23 24 25 26 27 28 28 29 30 30 31 31 32 32 33 33 33 33 33 32 32 33 34 34 34 35 35 37 37 38 39 39 40 41 42 43 44 43 42 41 41 40 40 41 41 39 37 37 40 39 35 32 34 36 39 39 38 37 38 39 40 40 39 39 39 37 35 34 34 32 30 28 28 31 34 36 36
17 18 19 20 21 21 22 23 24 25 26 27 28 29 30 31 31 32 33 33 34 34 35 35 35 36 36 36 35 35 35 34 34 34 34 35 37 38 40 40 40 40 41 42 43 43 43 42 41 40 39 39 39 38 36 37 40 40 36 35 36 36 37 37 36 36 36 38 38 38 39 39 39 38 37 35 33 31 29 29 30 32 35 36 36
18 19 20 21 22 23 24 24 26 27 28 29 29 30 31 32 33 34 35 36 36 37 38 38 39 39 40 41 40 39 38 37 36 35 34 34 34 36 39 41 41 41 41 41 42 43 42 42 41 40 39 38 37 37 35 38 41 40 36 36 37 36 36 36 37 37 36 36 36 36 37 39 38 37 36 34 33 30 28 29 31 34 37 39 37
18 19 20 22 23 24 25 26 27 27 28 30 30 31 33 33 34 35 36 37 38 39 40 41 42 42 43 44 45 45 44 42 41 39 38 35 34 35 37 39 41 42 42 42 42 42 42 41 41 39 38 37 36 35 35 38 42 39 35 36 37 36 36 35 35 35 34 34 34 34 35 37 38 37 36 34 31 29 28 29 31 34 36 38 37
19 20 21 22 23 24 26 26 27 28 29 30 31 31 33 34 35 36 37 38 39 40 41 42 43 44 45 46 47 48 47 47 45 44 43 41 38 37 37 38 39 41 42 42 42 42 41 41 40 39 38 36 35 35 36 38 42 38 34 36 37 37 38 37 35 34 32 31 33 33 35 36 37 35 34 33 30 29 31 32 33 33 33 34 34
20 20 21 23 24 25 26 27 28 29 29 30 31 32 33 34 35 36 37 38 39 39 40 41 43 44 45 46 48 49 48 48 48 47 46 44 42 40 40 40 40 40 41 42 42 42 41 39 38 38 37 36 35 36 36 38 41 38 33 36 37 38 38 37 35 34 33 33 34 34 33 32 30 28 28 29 29 29 30 32 33 34 34 33 31
21 22 23 24 25 27 28 29 30 31 31 32 33 34 34 35 36 37 38 38 39 39 40 41 42 42 44 45 47 48 49 49 49 49 48 46 45 44 43 42 42 41 41 41 41 42 41 39 37 36 36 36 35 35 35 37 39 36 34 36 37 38 37 35 34 34 35 35 35 33 28 23 21 21 22 25 27 26 26 27 29 31 32 31 27
22 23 24 25 26 28 29 31 31 32 33 34 35 35 36 36 37 38 39 39 39 39 40 41 41 42 43 44 45 46 47 48 48 49 49 47 46 45 44 43 43 42 41 41 40 40 39 38 36 35 35 35 35 35 35 37 37 36 36 37 37 36 35 34 34 34 33 31 30 26 21 18 17 19 20 23 27 28 27 28 31 31 30 28 26
22 23 24 25 27 28 29 31 32 33 34 35 36 37 37 37 37 38 39 40 40 40 40 41 41 42 43 43 45 46 46 47 48 48 48 47 46 45 44 43 43 43 41 40 39 39 38 36 35 34 34 34 34 34 34 35 36 37 37 38 37 36 34 33 33 31 28 24 22 20 18 16 17 19 21 23 26 28 29 31 32 31 29 27 26
23 24 25 26 28 29 30 32 34 35 36 37 38 38 38 38 39 39 40 42 42 42 43 43 43 43 43 44 45 46 47 47 47 48 48 47 45 44 43 42 43 42 41 39 38 37 36 35 33 33 33 33 33 32 31 33 37 38 37 37 36 35 34 33 31 28 24 21 20 20 18 17 18 20 21 23 24 25 26 27 27 27 27 27 26
24 25 27 27 28 30 31 33 34 36 37 38 39 40 40 40 41 41 42 43 44 45 45 46 46 45 44 44 45 46 47 47 47 47 47 46 44 42 41 40 41 41 39 38 36 35 34 33 32 32 32 32 32 31 31 32 36 36 34 34 34 34 33 31 29 26 24 23 22 20 19 18 19 21 22 23 24 24 24 23 22 24 26 27 25
26 27 28 29 30 31 32 33 35 36 37 39 39 40 41 41 42 43 43 44 45 45 45 46 47 47 46 46 46 46 47 47 47 47 47 46 43 40 38 38 38 38 37 35 34 34 34 33 33 32 32 32 32 32 32 33 34 33 31 31 32 32 31 28 26 24 24 24 23 22 21 21 21 23 25 25 26 25 24 22 20 20 23 24 24
28 29 30 30 31 32 32 33 34 35 36 38 39 40 40 41 42 43 43 43 44 44 45 45 46 47 47 46 46 46 46 47 47 47 47 45 42 38 36 36 34 34 35 34 33 33 34 34 33 33 32 32 32 32 32 31 31 30 29 28 28 27 27 26 25 24 25 25 25 24 25 25 26 25 24 24 25 24 24 22 20 19 20 20 19
30 31 31 31 31 31 31 31 32 33 34 35 37 38 39 39 41 42 43 43 43 44 44 44 45 47 47 46 45 45 45 46 46 46 45 44 41 37 35 35 32 30 33 34 33 32 32 33 34 33 32 32 31 30 29 27 27 27 24 23 25 26 25 26 26 26 26 26 26 27 28 29 29 26 24 24 25 25 25 24 23 23 21 18 16
31 31 31 31 31 31 31 31 31 32 33 34 36 37 38 38 40 41 42 43 43 44 44 44 45 47 47 47 46 45 44 45 45 44 42 40 38 34 33 32 30 29 31 33 33 32 31 32 33 32 32 31 29 27 24 22 23 23 21 21 25 26 26 27 28 27 27 26 27 29 28 28 27 25 24 25 25 25 26 25 23 21 19 17 16
31 32 32 33 33 33 33 34 34 34 35 36 37 37 38 39 40 40 41 42 43 43 43 44 46 47 48 48 46 45 45 45 44 43 41 38 35 32 31 31 30 29 30 32 32 31 31 31 31 31 30 28 25 23 20 18 20 20 19 22 26 26 27 29 29 28 28 28 29 28 26 25 23 23 24 24 25 25 25 23 20 18 16 15 16
34 34 35 35 36 37 37 37 37 37 37 38 38 39 39 39 40 40 41 41 42 43 43 44 45 47 48 48 47 46 45 45 44 43 40 37 34 31 30 30 30 29 30 32 32 31 30 30 30 29 27 24 21 18 15 15 18 18 19 24 26 26 28 30 29 28 29 30 29 26 24 23 22 22 22 23 23 23 22 19 18 17 16 16 16
36 37 37 38 38 39 39 40 40 39 39 39 39 39 39 40 40 41 41 41 41 42 42 43 44 46 47 47 47 46 45 45 44 43 40 37 34 32 30 30 29 29 30 31 31 29 28 28 28 26 24 21 18 16 14 16 18 19 21 25 27 27 29 30 29 29 28 28 26 24 22 22 20 20 20 21 20 19 18 17 17 17 17 17 16
39 39 39 40 40 40 40 41 41 41 41 41 41 40 40 40 40 41 41 41 41 41 41 42 42 44 45 46 46 46 45 44 44 43 41 39 35 32 30 29 29 29 29 28 27 26 25 25 24 23 21 18 16 14 14 17 20 22 24 26 26 26 27 28 28 27 25 24 23 22 20 20 19 19 20 20 19 18 17 17 16 17 17 16 15
39 39 40 40 40 40 40 41 42 42 43 42 42 42 41 41 41 41 41 40 40 39 39 40 40 41 42 43 44 44 44 44 43 42 41 39 35 32 30 29 29 28 26 25 23 22 22 22 21 20 19 17 14 14 16 19 22 24 25 25 24 25 27 28 27 25 24 22 21 19 19 18 17 18 20 20 19 18 18 17 17 17 17 16 14
38 39 40 41 41 41 42 42 43 43 44 44 44 44 43 43 43 43 41 40 39 38 37 38 38 38 39 41 42 42 44 44 42 41 40 38 34 32 31 30 29 27 24 21 20 20 20 19 19 18 17 15 15 16 19 22 24 25 26 24 24 26 29 29 27 24 22 20 18 16 16 15 15 17 19 20 19 19 18 18 18 17 16 15 14
40 41 41 42 43 43 44 44 44 45 45 46 46 46 45 44 44 44 43 42 39 38 36 36 36 36 38 41 41 40 41 43 42 40 39 36 32 31 30 28 27 24 21 18 17 18 18 17 17 16 16 17 18 19 22 25 26 27 26 24 24 27 28 27 25 23 20 17 15 12 11 11 13 17 19 19 19 20 19 18 17 16 15 15 13
41 42 43 44 44 45 45 46 46 46 46 46 46 47 47 46 44 44 44 43 42 40 37 36 35 35 37 40 41 40 40 40 40 38 36 33 31 29 26 24 23 19 16 15 16 17 16 15 15 15 16 18 19 21 24 25 27 27 27 25 25 27 27 25 23 20 17 15 12 9 8 9 12 15 18 19 19 20 19 18 17 16 15 14 13
42 43 44 45 45 46 46 46 47 47 47 47 47 47 48 49 48 46 44 43 42 41 39 36 35 34 36 38 39 40 40 38 37 35 33 30 28 25 22 20 18 15 13 14 15 16 15 14 15 16 17 18 20 22 24 24 25 26 27 26 26 27 26 24 21 17 14 11 9 7 7 9 12 14 17 19 19 19 18 17 16 15 15 15 14
42 44 45 46 46 47 47 47 47 47 47 48 47 47 48 48 49 48 47 45 43 42 39 37 35 35 37 37 36 37 38 36 34 32 29 26 24 21 18 16 14 12 12 13 14 14 14 14 16 17 18 19 20 21 22 22 23 23 24 24 25 27 26 22 18 15 11 9 6 5 6 9 12 15 18 19 18 18 17 16 16 15 15 15 15
43 44 45 46 47 47 47 47 47 47 47 47 47 47 47 47 46 46 46 46 45 44 41 38 35 35 37 38 36 34 34 34 32 29 26 22 19 16 14 13 13 12 11 13 14 14 14 15 17 17 18 19 19 19 20 21 21 22 23 25 26 26 22 18 15 12 9 7 5 5 7 9 12 16 18 19 19 18 17 16 16 15 15 15 15
44 45 45 45 46 47 47 47 47 47 47 47 47 46 46 46 44 42 41 41 42 44 43 40 36 36 37 37 35 33 31 30 28 26 22 18 15 13 12 13 13 11 11 13 14 14 14 15 17 17 19 19 18 18 19 20 21 23 25 25 24 21 18 15 13 9 7 5 5 6 8 10 13 16 17 17 17 16 16 15 15 14 14 15 15
44 45 46 46 46 47 47 47 47 46 46 45 45 45 45 44 42 40 38 37 39 41 42 41 38 37 38 37 33 30 27 25 24 22 18 14 12 11 12 14 13 12 12 14 14 13 13 14 15 16 18 18 16 16 17 19 21 24 23 21 19 16 13 11 9 7 5 4 6 7 9 11 14 16 17 17 16 15 15 14 14 14 14 14 14
46 47 47 47 47 47 47 47 46 45 45 44 44 44 43 42 40 38 37 37 38 40 41 41 39 39 39 37 30 25 23 22 20 17 14 12 11 12 14 14 13 13 13 13 12 11 11 12 12 14 16 16 16 15 16 19 22 22 20 17 15 13 10 8 6 5 5 6 7 9 10 12 14 17 17 17 16 15 14 14 14 14 13 14 14
47 47 47 47 47 47 46 46 46 45 44 44 43 42 42 41 39 37 36 37 38 39 40 40 39 39 39 34 27 21 20 19 15 14 14 13 14 14 14 14 13 13 13 12 11 9 9 10 10 11 13 15 15 14 16 19 20 18 16 15 13 10 8 7 6 6 7 8 10 11 11 13 15 17 17 16 15 14 14 14 14 13 13 13 13
47 47 47 46 46 45 45 45 44 44 43 43 42 41 40 39 38 37 36 37 38 38 38 38 37 37 35 30 24 20 19 17 15 16 16 16 15 15 14 13 12 12 12 10 9 7 7 8 8 9 11 12 13 14 15 17 17 16 14 12 10 8 7 7 7 9 10 11 12 12 13 14 16 16 15 15 14 14 14 14 14 13 12 12 11
46 47 47 46 45 45 44 43 43 42 42 42 42 41 40 39 37 37 36 36 37 37 36 35 36 34 31 26 22 20 19 17 17 18 19 18 16 15 13 12 11 11 10 8 7 7 8 8 8 8 9 10 11 13 14 15 16 15 13 11 9 8 8 9 11 12 13 14 14 13 14 15 15 15 14 14 14 14 14 14 13 12 11 11 11
46 46 46 46 45 45 44 43 42 41 41 41 41 40 39 38 37 36 36 35 35 36 35 34 33 31 27 23 20 19 19 19 20 20 20 18 17 16 13 10 9 9 8 7 7 8 8 8 8 9 9 10 10 11 12 13 14 13 12 11 10 10 11 13 15 16 16 15 14 13 14 14 14 14 14 14 14 14 13 12 11 11 10 11 11
44 45 46 45 45 44 44 43 42 41 40 40 40 39 39 38 36 36 35 34 33 33 33 33 32 28 24 21 19 19 19 20 22 22 20 18 17 17 14 11 10 9 9 8 8 9 9 9 9 9 9 9 10 10 10 11 12 12 12 13 13 14 15 17 17 16 15 14 13 14 14 14 14 14 14 14 13 13 12 11 11 10 10 11 11
43 43 44 44 44 43 43 42 42 41 41 40 40 39 38 37 36 35 34 33 32 30 31 31 29 25 22 20 19 19 20 20 22 23 21 19 18 17 15 14 12 11 11 11 11 11 11 11 11 11 11 11 11 11 11 12 13 14 15 16 16 17 17 16 15 14 14 14 14 15 15 15 14 13 13 12 12 11 11 10 10 10 10 11 11
40 41 41 42 42 41 40 40 40 40 40 39 39 38 37 36 35 34 32 31 30 28 27 27 25 23 21 21 21 21 20 20 22 24 23 20 18 17 16 16 15 14 12 12 12 12 13 13 13 13 13 13 13 13 14 15 16 17 17 17 16 15 14 13 13 13 13 14 15 14 14 13 13 12 12 11 11 11 10 10 10 10 11 11 11
37 38 39 39 39 39 39 38 37 37 37 37 37 37 36 35 34 32 30 29 28 26 24 23 22 21 21 21 21 21 21 20 21 24 24 21 19 18 17 17 16 15 14 12 12 12 12 14 14 15 14 14 14 13 14 14 14 15 15 14 14 13 13 13 13 14 14 13 13 12 12 12 11 11 11 10 10 10 10 10 10 11 11 11 11
35 35 36 37 37 38 38 37 36 36 36 35 36 36 36 34 32 30 28 27 25 24 22 20 19 20 20 21 21 22 21 20 21 23 23 22 21 20 19 18 17 16 15 13 12 11 11 12 13 13 13 13 12 12 11 12 12 12 12 13 13 13 13 13 13 12 12 11 11 11 11 10 10 10 10 10 11 11 10 10 11 11 11 11 12
33 33 34 35 35 36 36 35 35 35 35 34 34 34 34 32 31 28 27 25 23 21 20 18 18 19 20 20 21 22 21 20 20 21 22 22 22 21 20 18 17 16 14 13 11 10 9 9 10 11 12 11 11 11 11 11 11 11 11 11 11 11 11 10 10 10 10 10 10 10 10 10 10 10 11 11 11 11 11 11 11 11 12 13 13
31 32 32 33 34 34 34 34 34 34 33 33 33 32 31 30 28 26 24 22 20 19 18 17 18 18 19 19 20 21 20 20 19 20 21 21 21 20 19 17 16 15 13 11 10 10 9 9 10 11 11 10 10 10 10 10 10 10 10 9 9 9 9 9 9 9 9 9 9 10 10 10 10 11 11 10 11 11 11 12 12 12 13 13 13
29 30 31 32 32 32 33 33 33 32 32 31 31 30 29 27 25 23 21 19 18 17 17 17 17 17 17 18 19 19 19 18 18 18 19 19 19 18 17 16 15 13 12 11 11 10 10 10 10 10 10 9 9 9 9 9 8 8 8 8 7 7 8 8 9 9 9 9 10 10 10 11 11 11 11 11 12 12 12 12 12 12 13 13 13
27 28 29 29 30 30 30 30 31 31 31 29 29 28 26 24 22 20 18 17 17 16 16 16 16 15 16 17 17 18 17 16 16 17 17 17 17 16 15 13 12 12 11 12 11 11 10 10 10 9 9 9 8 8 8 7 7 7 7 7 7 8 8 8 9 9 9 10 10 11 11 11 11 12 12 12 12 12 12 12 12 12 12 12 12
26 27 27 27 28 28 28 28 29 30 30 29 28 27 25 23 21 19 17 16 16 15 15 15 14 14 13 14 14 14 14 14 14 15 16 15 15 14 13 12 11 11 11 11 11 11 10 10 9 9 9 8 8 7 7 7 7 7 7 7 8 8 9 9 9 10 10 11 11 11 12 12 12 12 12 12 12 12 12 12 12 12 12 12 13
Wind_Direction
3 2 3 2 358 356 353 351 350 349 349 350 350 349 347 344 343 342 341 337 333 329 324 320 315 309 304 299 295 292 289 288 286 284 283 282 283 283 283 283 282 282 282 281 280 279 279 279 278 279 280 280 279 279 279 280 279 276 273 271 270 268 269 268 267 272 277 278 277 277 278 279 279 277 276 274 271 265 260 256 251 242 234 230 230
14 15 14 11 6 3 358 353 350 347 347 346 344 344 342 341 340 340 340 340 339 336 333 329 324 319 314 309 305 301 298 296 293 290 288 286 286 285 284 283 282 281 281 280 280 279 279 278 277 278 279 279 280 281 282 281 279 278 275 270 269 269 269 269 270 272 275 278 278 277 278 278 277 276 275 273 269 265 260 256 251 240 230 227 227
15 12 8 5 1 358 353 350 347 343 341 338 336 334 333 332 331 330 331 332 332 332 331 329 327 325 323 320 317 313 309 306 302 299 297 295 293 291 289 287 286 285 283 283 283 282 281 280 278 278 278 278 279 280 280 278 275 275 276 272 267 266 268 269 269 271 274 277 277 276 276 276 276 275 273 271 267 263 258 253 249 238 227 224 225
5 360 357 356 352 350 348 347 345 343 341 338 335 333 330 328 327 325 324 324 324 324 323 323 322 321 321 321 320 318 316 312 309 306 303 302 300 297 295 293 290 289 287 286 285 283 282 281 280 280 278 277 277 278 278 277 274 272 275 274 266 261 265 268 269 270 273 275 275 274 273 273 273 272 269 266 262 258 253 248 243 233 223 221 222
355 352 350 350 347 345 344 342 341 341 341 341 340 338 335 333 330 326 324 322 320 319 318 317 316 316 316 316 315 314 314 312 310 309 308 305 302 300 298 295 293 291 289 287 284 282 281 280 280 280 278 277 276 277 277 277 277 276 276 273 266 262 265 267 267 269 270 270 271 271 270 269 268 267 264 261 255 249 245 240 235 228 220 216 217
352 349 348 346 344 341 339 339 339 340 341 341 341 341 340 339 337 335 332 329 327 324 321 319 316 314 313 312 311 310 309 309 309 309 309 307 304 302 299 296 294 292 290 288 285 283 281 280 280 279 277 276 277 277 277 277 279 280 277 271 267 267 268 267 267 268 267 268 268 267 267 266 264 262 260 255 250 245 238 230 224 221 216 212 211
351 350 348 347 345 342 339 338 337 337 337 337 337 337 337 336 336 336 335 334 333 331 329 327 324 320 316 313 311 310 309 309 309 309 308 307 305 303 300 297 295 292 290 288 286 283 281 279 278 277 276 276 276 277 277 278 280 282 277 269 264 265 268 268 267 267 266 265 264 263 263 262 259 257 254 249 242 239 235 226 216 210 210 211 211
352 350 347 346 343 341 339 337 335 334 333 332 331 330 330 330 330 331 331 330 330 330 330 329 328 326 323 320 317 314 312 311 311 309 307 305 303 301 299 297 294 292 290 288 285 282 280 278 277 276 276 275 276 276 276 278 282 282 277 270 265 263 264 267 266 265 264 262 261 260 260 258 254 250 246 240 233 229 227 225 218 209 206 208 212
351 348 345 343 340 338 337 335 333 332 330 330 329 328 327 328 327 327 327 327 327 328 328 327 327 325 324 323 321 319 317 315 313 311 308 307 304 301 299 297 295 294 291 289 287 284 281 279 277 276 276 277 277 276 275 276 278 279 274 269 267 264 263 264 263 262 262 260 258 256 254 252 249 245 241 238 235 230 223 218 215 213 209 208 211
348 346 344 342 340 338 336 335 333 332 330 329 329 328 328 328 327 327 326 326 326 326 326 326 326 325 324 323 323 322 321 320 318 314 310 308 305 302 300 298 296 294 292 291 289 286 283 280 278 277 277 277 277 276 274 272 274 276 271 266 267 265 262 263 262 261 260 258 255 254 250 248 248 248 245 241 235 228 219 211 208 208 207 206 207
347 344 341 340 340 338 336 336 335 333 332 331 330 329 329 328 328 327 326 325 325 325 325 325 325 324 324 324 324 324 325 325 323 319 315 311 307 303 301 299 296 294 291 290 288 287 284 281 279 278 276 276 276 277 275 273 275 277 268 262 266 265 262 262 262 261 260 256 254 253 251 251 250 247 241 234 227 220 215 213 209 205 204 204 205
344 341 339 338 337 335 334 333 333 332 331 330 330 329 329 328 328 326 325 325 324 324 324 323 323 323 323 322 322 323 324 326 325 323 321 317 311 306 302 300 297 295 292 290 288 286 284 282 281 279 278 278 277 277 277 275 278 279 267 260 264 266 263 262 260 259 258 255 254 253 252 250 247 240 233 228 223 216 211 212 210 207 206 206 207
338 336 335 334 332 332 331 330 330 329 328 327 327 326 326 326 326 325 323 323 322 322 322 322 321 321 321 321 320 320 322 323 323 323 322 320 316 311 305 302 299 296 294 291 289 286 284 282 282 281 280 280 278 278 277 275 279 281 269 260 263 264 263 263 260 259 258 257 257 255 252 248 244 241 238 232 224 213 207 207 207 207 207 208 211
331 330 330 329 328 327 325 325 325 324 323 323 322 321 321 321 321 320 319 319 319 319 319 318 318 318 319 319 318 318 320 321 321 321 321 320 318 314 309 304 301 298 295 292 289 287 285 283 283 283 283 282 280 279 277 276 281 282 269 262 264 264 263 262 260 258 258 258 257 254 251 250 248 245 242 234 225 216 209 205 203 203 206 209 212
325 325 325 324 324 323 322 322 321 320 319 318 318 317 317 316 316 315 314 314 314 314 314 313 313 313 314 315 315 315 317 319 320 319 319 319 317 314 311 307 303 300 297 293 290 288 286 284 283 283 283 283 281 279 279 280 283 280 269 265 265 264 262 261 260 261 260 256 253 249 246 243 239 236 234 228 221 218 214 207 201 202 205 205 204
319 320 321 321 321 321 319 319 318 318 317 316 316 316 315 315 315 313 312 311 311 310 309 309 309 308 308 309 309 309 311 314 316 316 316 316 315 313 310 307 304 301 297 294 291 288 286 284 282 282 281 281 281 281 282 283 281 276 271 269 268 265 263 262 263 263 259 253 248 242 233 225 222 222 222 218 212 209 207 202 200 201 200 196 192
316 317 318 318 318 318 317 317 316 316 316 315 314 314 314 314 315 314 313 312 311 311 311 309 309 309 308 308 308 306 307 310 313 313 313 314 313 311 309 306 303 300 297 294 292 289 287 285 283 282 280 279 280 282 284 282 279 275 272 271 270 268 265 264 263 258 251 242 233 223 215 213 214 214 215 214 209 204 200 198 198 197 194 191 189
313 313 314 315 315 316 315 315 314 314 314 313 313 313 313 313 313 314 314 313 312 312 312 311 311 311 311 310 310 308 307 309 312 312 312 312 311 309 308 305 302 300 297 295 293 291 289 287 285 283 281 280 281 283 283 280 277 275 272 271 269 267 265 264 259 249 236 221 211 207 207 207 205 205 207 206 202 199 195 193 192 192 194 196 195
311 310 311 312 312 313 313 312 311 310 310 310 310 310 310 310 310 311 311 311 310 310 311 311 310 310 311 311 310 310 309 308 311 312 312 311 310 308 306 303 300 299 298 297 295 294 291 289 286 284 283 282 282 282 281 278 277 275 272 268 266 265 264 261 253 240 220 203 197 198 198 197 195 192 189 188 189 191 190 191 194 195 196 197 195
311 311 311 311 310 310 310 308 308 307 306 306 306 306 307 307 307 307 307 308 308 307 308 310 309 309 310 310 309 310 309 308 309 311 312 312 311 308 304 301 299 299 299 297 296 294 291 289 287 285 284 283 282 281 279 277 276 273 268 264 263 263 259 251 242 229 211 197 192 191 190 188 182 177 175 177 182 187 187 191 201 202 197 194 191
312 312 312 311 310 310 309 308 308 307 307 307 305 305 306 306 305 305 305 305 306 306 306 307 307 307 307 308 308 309 310 309 309 310 311 312 312 309 304 301 300 298 297 295 292 290 290 291 290 288 286 283 281 280 279 277 273 269 265 262 260 257 249 238 229 219 206 195 190 187 186 181 175 172 172 174 179 182 182 186 192 193 192 192 191
313 313 313 313 313 312 312 312 312 311 311 312 310 310 310 309 307 305 304 304 304 304 305 306 306 306 307 308 308 308 309 309 309 309 310 312 313 311 306 303 300 295 293 292 290 289 290 290 290 289 286 283 281 280 278 275 269 265 261 256 250 244 236 228 220 211 203 196 190 186 183 178 174 173 176 178 180 182 184 187 189 186 186 186 186
314 314 315 315 315 315 314 314 314 314 314 314 313 313 313 313 310 307 305 303 302 303 304 305 305 306 307 308 309 310 310 309 309 309 310 312 314 313 308 304 300 293 289 288 288 287 287 288 288 288 286 283 281 279 276 269 260 256 253 245 240 234 226 219 212 205 199 194 187 182 177 175 174 176 181 184 186 186 188 190 188 185 183 183 186
314 314 315 314 314 314 313 313 313 312 312 312 311 312 313 313 312 310 307 304 302 302 303 303 304 305 306 308 310 311 312 310 310 311 312 313 313 312 308 304 299 292 286 285 285 286 286 287 288 287 285 284 280 275 268 256 246 246 242 235 231 226 219 212 205 199 194 187 181 177 173 172 176 181 185 187 187 187 188 187 183 182 185 189 194
313 313 313 313 313 312 311 311 311 311 311 310 310 310 311 311 311 310 307 304 303 302 302 303 304 305 306 307 308 310 311 311 311 311 312 311 310 308 306 302 298 292 286 284 284 285 286 286 287 286 283 280 273 264 252 233 229 234 232 227 225 220 213 207 201 194 189 182 176 174 172 173 177 183 186 187 187 186 184 181 180 185 191 197 200
312 312 312 312 312 311 311 310 310 309 309 309 309 309 309 309 308 308 307 304 303 303 302 303 304 305 306 307 307 308 310 311 311 311 311 309 308 307 304 300 297 292 287 284 284 285 285 285 286 284 279 273 262 249 231 212 215 222 221 220 221 216 209 205 199 192 185 176 172 171 171 174 177 180 184 185 183 182 181 183 188 192 196 201 204
312 313 313 313 313 313 312 311 310 310 309 309 309 308 308 307 306 305 305 304 303 303 303 303 304 305 306 307 306 307 309 310 312 312 310 309 309 308 304 300 296 292 288 286 286 286 285 285 283 279 273 264 250 236 216 204 207 212 212 215 218 213 207 204 197 187 176 168 166 168 170 173 175 177 180 180 178 179 184 190 196 199 201 204 204
314 315 315 316 316 316 315 314 314 313 312 312 311 310 309 308 305 304 304 304 304 304 304 304 304 305 306 306 306 307 308 310 311 311 309 308 308 307 303 299 296 292 287 286 285 284 282 280 277 271 263 250 233 216 207 205 205 205 206 208 209 205 202 196 187 178 170 164 163 164 168 172 176 178 178 178 180 186 191 196 202 205 205 205 205
316 317 318 319 319 319 318 318 317 316 315 314 313 312 311 310 307 305 304 304 304 304 304 304 305 306 306 305 306 306 306 309 310 308 306 306 305 304 301 299 295 292 288 285 283 280 277 273 266 258 247 229 211 204 206 205 201 200 201 202 201 199 196 188 176 168 165 162 160 161 165 171 177 180 180 182 187 192 196 201 206 208 207 208 209
318 318 319 320 320 320 320 319 318 317 316 315 314 313 312 310 308 307 306 305 305 304 304 304 306 307 306 304 304 303 304 307 308 305 303 303 301 300 299 296 293 290 287 283 279 275 271 266 258 244 227 210 201 203 206 202 196 196 196 196 197 196 189 178 169 164 160 157 156 156 161 172 182 185 186 189 194 198 200 202 205 208 210 213 214
318 318 319 319 319 319 318 318 317 316 315 314 313 312 311 310 309 308 307 307 306 305 304 304 306 307 305 304 303 302 302 303 303 301 300 300 300 299 297 292 289 286 282 278 274 270 266 260 247 230 216 209 205 204 203 198 195 194 191 190 195 193 182 170 164 161 156 152 151 152 161 178 189 191 192 195 199 201 202 203 205 209 214 218 221
317 317 317 317 317 317 316 316 316 316 315 314 313 311 310 310 309 309 308 307 306 305 304 304 305 306 305 303 302 302 301 301 301 299 298 297 298 296 291 285 281 279 275 271 268 266 261 247 231 220 217 213 208 204 200 196 194 193 191 191 192 187 176 166 160 157 152 148 148 155 173 186 192 195 197 200 201 202 203 205 209 214 219 224 228
316 316 316 316 316 316 315 315 315 315 314 314 313 311 309 309 308 308 308 307 306 305 304 304 304 305 306 304 302 300 300 300 299 298 296 295 293 288 281 277 272 268 266 261 258 260 253 234 221 221 222 215 208 202 197 192 192 194 194 189 182 176 170 165 159 154 152 150 152 173 192 198 199 198 198 200 202 203 206 209 214 220 225 230 234
316 315 316 316 315 315 315 315 315 314 314 313 311 310 309 307 307 308 307 307 307 306 305 304 303 303 305 304 301 299 298 297 296 296 295 290 282 274 272 273 266 257 253 249 249 253 248 231 222 222 222 216 209 201 195 192 194 193 185 177 171 169 168 165 160 158 158 161 177 204 212 212 209 205 204 204 205 207 211 216 221 226 231 234 238
315 314 315 315 315 315 316 316 315 315 314 312 311 309 308 307 307 307 307 307 306 305 305 305 303 303 303 301 299 297 296 294 294 294 289 277 266 262 265 266 257 240 230 234 241 249 249 236 226 222 219 214 209 202 197 196 192 183 175 170 169 169 167 165 164 166 168 180 213 229 228 223 216 212 211 212 213 216 219 221 226 230 235 241 246
315 315 315 316 316 316 316 316 316 315 314 312 311 309 308 308 307 307 306 305 303 303 303 303 303 302 301 299 297 295 294 293 293 288 275 259 253 254 253 250 242 225 218 227 238 248 251 242 231 225 219 212 205 202 200 193 183 175 172 171 171 171 170 168 170 176 187 215 241 244 240 233 224 218 217 217 219 221 222 224 230 235 240 247 253
317 316 316 316 316 316 315 315 315 314 314 313 312 311 310 309 308 307 305 302 300 300 300 301 302 302 300 299 297 294 293 293 288 275 256 244 246 247 241 238 232 220 217 227 238 246 249 243 234 228 220 209 201 200 198 189 179 175 175 175 174 173 175 178 184 198 221 248 260 258 251 239 228 224 222 221 222 224 225 229 235 240 246 253 258
317 317 317 316 316 315 315 314 314 314 314 313 313 312 311 309 307 306 303 300 299 299 299 300 300 299 298 299 298 295 293 288 271 247 237 236 236 234 231 230 227 218 216 227 240 244 241 237 233 228 218 207 200 198 196 191 186 183 182 182 181 183 188 197 215 235 251 263 267 263 252 236 225 222 222 222 225 229 232 236 242 246 252 258 263
317 316 316 316 316 315 314 313 312 312 312 311 311 311 310 309 307 305 302 300 299 298 298 298 297 296 296 298 297 293 289 276 247 230 233 236 229 224 224 225 221 215 216 228 236 230 221 222 224 222 215 207 201 198 198 198 198 198 197 197 200 206 216 231 248 259 266 270 269 259 244 229 221 220 221 223 228 233 237 241 246 251 257 264 267
318 317 317 317 316 314 313 311 310 309 309 309 309 310 310 309 307 304 301 299 298 297 296 295 293 293 295 295 292 289 283 263 235 229 238 238 226 218 220 219 211 208 212 218 215 201 195 197 201 204 206 206 204 202 202 204 206 209 212 218 226 235 244 254 262 265 267 266 260 248 234 225 220 221 224 228 232 237 241 245 250 256 261 267 271
320 319 318 318 317 315 313 311 310 308 307 308 308 309 309 308 306 303 300 297 296 295 294 291 289 290 291 290 287 284 276 254 231 230 240 239 224 215 215 210 199 196 199 198 191 185 183 183 185 188 190 193 198 202 205 208 213 218 225 232 240 247 253 258 261 261 260 256 246 234 226 223 223 225 228 231 235 239 243 248 254 261 266 271 275
322 321 320 319 318 317 315 313 311 309 308 307 307 308 308 307 305 302 298 295 294 293 291 289 287 287 288 287 283 278 268 249 231 229 238 238 226 216 215 213 207 202 202 200 194 189 186 185 185 185 186 188 195 201 206 212 219 226 233 239 245 250 254 256 256 254 250 242 232 225 222 223 225 227 230 234 238 242 247 253 259 265 270 273 276
324 323 322 321 320 318 316 314 313 311 309 309 309 309 309 307 304 301 298 293 291 290 288 287 287 287 288 287 280 271 263 249 232 227 234 237 228 219 217 218 218 218 217 213 208 204 202 201 199 198 198 200 204 209 215 223 229 234 239 243 247 249 250 249 247 243 237 229 224 222 222 224 227 231 234 237 241 245 250 257 262 266 270 272 274
325 324 323 322 321 319 317 315 313 311 310 310 310 309 309 307 304 302 299 294 291 289 286 285 286 288 288 286 278 268 263 251 233 226 230 234 229 221 218 219 222 227 228 224 219 216 216 216 215 214 214 216 219 222 227 232 235 238 239 240 241 241 241 239 234 228 224 221 220 221 223 226 230 233 236 240 245 250 255 259 263 266 268 270 271
327 327 326 324 323 321 318 317 316 314 313 313 311 310 308 306 304 303 300 295 292 289 286 284 287 289 288 285 276 267 262 253 236 227 228 231 230 226 223 223 227 232 236 235 232 228 224 224 223 222 223 224 225 226 228 230 232 233 233 231 229 226 222 220 218 215 214 216 219 222 226 230 233 236 239 244 249 254 258 261 263 265 266 268 268
331 331 331 329 327 325 323 322 320 318 316 315 313 310 308 306 304 303 300 295 291 288 286 286 288 289 287 282 273 263 257 250 238 229 226 227 228 228 227 228 230 234 237 239 239 237 232 228 223 220 219 220 219 217 217 217 218 220 221 220 218 215 212 211 212 213 215 220 223 226 231 234 236 240 245 249 253 256 258 261 263 264 265 265 265
335 336 336 336 335 333 331 328 326 323 321 318 315 312 308 306 304 302 299 295 289 287 287 289 290 289 286 279 269 259 252 246 238 230 226 227 228 229 229 229 230 232 234 235 236 233 226 216 209 206 207 208 207 206 206 206 206 208 210 210 212 213 213 214 216 219 222 226 229 233 238 241 244 247 250 252 255 258 259 261 262 263 262 262 261
339 340 341 342 342 341 339 337 335 331 327 323 319 315 311 308 305 303 301 296 291 289 291 292 290 288 284 276 265 256 248 242 236 231 229 229 227 226 225 225 225 227 229 227 223 216 207 199 195 196 199 201 202 204 205 206 207 209 210 211 213 216 218 221 225 228 232 235 237 241 244 246 249 252 254 256 258 260 260 260 260 260 259 258 258
343 343 344 345 346 347 347 346 345 342 336 331 325 321 317 313 309 307 306 302 298 297 298 295 291 288 283 274 263 253 246 239 233 229 228 226 222 220 220 221 222 224 223 217 210 204 200 198 198 199 203 206 208 210 211 213 214 216 217 219 222 225 228 232 235 238 241 243 245 246 249 251 253 256 257 257 257 258 257 257 256 255 255 256 257
345 345 345 346 347 348 351 352 353 351 347 341 335 329 325 321 317 315 314 313 310 307 302 297 292 287 282 273 262 251 243 235 229 226 225 222 220 219 219 220 220 219 214 208 205 202 201 202 203 205 210 215 217 218 220 220 221 222 224 226 229 233 236 238 240 242 244 246 248 250 252 254 255 256 255 254 254 254 253 253 252 253 255 257 260
345 345 345 345 346 348 351 354 357 358 356 354 349 343 337 332 329 327 326 324 317 310 304 298 293 287 280 270 258 246 237 230 227 226 223 220 221 223 223 221 217 211 205 203 202 201 202 204 206 210 215 218 219 220 221 222 223 226 228 230 234 237 239 241 243 245 247 249 250 251 252 252 252 252 251 251 251 251 251 251 253 255 258 261 263